FW4110 Weather Reports


time (UTC)temp
C
wind
direction
speed
KPH
gust
KPH
rain 1hr
cm
rain 24hr
cm
rain mn
cm
humidity
%
barometer
mb
20260510043030 17 66 4.8 17.7 0.00 0.03 0.00 85 1015.0
20260510041521 18 48 3.2 11.3 0.00 0.03 0.00 86 1014.7
20260510040012 18 64 6.4 22.5 0.00 0.03 0.00 85 1014.6
20260510034508 19 14 9.7 25.7 0.00 0.61 0.00 84 1014.5
20260510033005 20 355 9.7 25.7 0.00 0.61 0.00 82 1014.2
20260510031605 20 162 0.0 1.6 0.00 0.61 0.00 76 1013.0
20260510024557 21 158 1.6 3.2 0.00 1.22 0.00 74 1012.4
20260510023056 21 157 1.6 3.2 0.00 1.22 0.00 74 1012.0
20260510021642 20 168 0.0 3.2 0.00 1.22 0.00 74 1012.0
20260510020059 20 161 0.0 1.6 0.00 1.22 0.00 75 1011.7
20260510014559 20 165 0.0 3.2 0.00 1.22 0.00 75 1011.4
20260510013102 20 172 0.0 1.6 0.00 1.22 0.00 75 1011.3
20260510011554 21 170 0.0 1.6 0.00 1.22 0.00 73 1011.3
20260510010058 21 242 0.0 1.6 0.00 1.22 0.00 71 1011.1
20260510004551 22 271 0.0 1.6 0.00 1.27 0.00 72 1011.1
20260510003050 22 272 0.0 0.0 0.00 1.27 0.00 70 1010.7
20260510001550 23 272 0.0 0.0 0.00 1.27 0.00 67 1010.8
20260510000051 25 272 0.0 0.0 0.00 1.27 0.00 63 1010.7
20260509234549 26 272 0.0 1.6 0.00 1.27 0.00 58 1010.7
20260509233049 26 339 0.0 6.4 0.00 1.27 0.00 58 1010.7
20260509231550 26 175 1.6 11.3 0.00 1.27 0.00 56 1010.6
20260509230050 27 8 3.2 9.7 0.00 1.27 0.00 56 1010.6
20260509224547 27 318 1.6 11.3 0.00 1.27 0.00 56 1010.5
20260509223051 27 358 4.8 9.7 0.00 1.27 0.00 57 1010.5
20260509221545 27 275 4.8 12.9 0.00 1.27 0.00 58 1010.6
20260509220048 27 340 3.2 19.3 0.00 1.27 0.00 57 1010.6
20260509214545 27 336 3.2 12.9 0.00 1.27 0.00 55 1010.4
20260509213050 27 334 4.8 14.5 0.00 1.27 0.00 58 1010.4
20260509211539 27 311 6.4 17.7 0.00 1.27 0.00 59 1010.5
20260509210044 27 24 4.8 16.1 0.00 1.27 0.00 59 1010.7
20260509204539 27 360 6.4 14.5 0.00 1.27 0.00 58 1010.9
20260509203036 26 334 6.4 19.3 0.00 1.27 0.00 56 1011.0
20260509201538 26 344 4.8 19.3 0.00 1.27 0.00 60 1011.1
20260509200034 26 328 3.2 20.9 0.00 1.27 0.00 61 1011.2
20260509194544 26 55 6.4 22.5 0.00 1.27 0.00 59 1011.1
20260509193033 26 333 3.2 17.7 0.00 1.27 0.00 64 1011.2
20260509191528 25 357 9.7 19.3 0.00 1.27 0.00 62 1011.3
20260509190028 25 341 8.0 22.5 0.00 1.27 0.00 63 1011.2
20260509184528 25 343 8.0 25.7 0.00 1.27 0.00 62 1011.2
20260509183026 25 47 6.4 19.3 0.00 1.27 0.00 65 1011.4
20260509181523 25 325 8.0 20.9 0.00 1.27 0.00 64 1011.4
20260509180022 25 351 3.2 12.9 0.00 1.27 0.00 68 1011.5
20260509174518 24 38 6.4 19.3 0.00 1.27 0.00 69 1011.7
20260509173022 23 339 8.0 20.9 0.00 1.27 0.00 68 1011.9
20260509171509 23 334 4.8 16.1 0.00 1.27 0.00 71 1012.3
20260509170005 23 166 3.2 11.3 0.00 1.27 0.00 70 1012.3
20260509164600 22 262 3.2 16.1 0.00 1.27 0.00 65 1012.4
20260509164501 22 192 4.8 16.1 0.00 1.27 0.00 65 1012.4
20260509163103 22 280 3.2 14.5 0.00 1.27 0.00 50 1012.4
20260509161602 21 5 1.6 12.9 0.00 1.27 0.00 60 1012.5
20260509160051 20 239 3.2 9.7 0.00 1.27 0.00 63 1012.5
20260509154550 20 337 1.6 12.9 0.00 1.27 0.00 67 1012.4
20260509153055 19 294 1.6 8.0 0.00 1.27 0.00 74 1012.3
20260509151537 18 349 1.6 11.3 0.00 1.27 0.00 78 1012.2
20260509150035 17 283 0.0 8.0 0.00 1.27 0.00 84 1012.2
20260509144533 17 135 0.0 8.0 0.00 1.27 0.00 92 1012.2
20260509143029 16 269 0.0 8.0 0.00 1.27 0.00 94 1012.2
20260509141534 15 208 1.6 9.7 0.00 1.27 0.00 93 1012.2
20260509140023 15 199 0.0 6.4 0.00 1.27 0.00 94 1012.2
20260509134520 14 324 0.0 11.3 0.00 1.27 0.00 93 1012.0
20260509133021 14 206 1.6 6.4 0.00 1.27 0.00 93 1011.9
20260509131519 13 287 1.6 8.0 0.00 1.27 0.00 93 1011.7
20260509130016 13 317 1.6 6.4 0.00 1.27 0.00 93 1011.6
20260509124517 13 315 0.0 8.0 0.00 1.27 0.00 93 1011.8
20260509123015 13 268 0.0 8.0 0.00 1.27 0.00 93 1011.8
20260509121513 13 301 0.0 6.4 0.00 1.27 0.00 93 1011.7
20260509120012 13 187 0.0 9.7 0.00 1.27 0.00 93 1011.9
20260509114509 -17 0.0 0.0 0.00 1.27 0.00 1011.7
20260509113004 -17 0.0 0.0 0.00 1.27 0.00 1011.4
20260509111602 -17 0.0 0.0 0.00 1.27 0.00 1011.0
20260509110055 -17 0.0 0.0 0.00 1.27 0.00 1011.2
20260509104554 -17 0.0 0.0 0.00 1.27 0.00 1011.3
20260509103055 -17 0.0 0.0 0.00 1.27 0.00 1011.2
20260509101544 -17 172 0.0 11.3 0.00 1.27 0.00 1010.9
20260509100042 13 214 1.6 8.0 0.00 1.27 0.00 93 1011.1
20260509094553 13 252 0.0 6.4 0.00 1.27 0.00 93 1011.1
20260509093042 13 138 1.6 8.0 0.00 1.27 0.00 93 1011.0
20260509091547 13 286 1.6 9.7 0.00 1.27 0.00 93 1010.9
20260509090048 13 280 0.0 8.0 0.00 1.27 0.00 93 1010.6
20260509084536 13 302 0.0 4.8 0.00 1.27 0.00 93 1010.5
20260509083035 13 153 0.0 8.0 0.00 1.27 0.00 93 1010.5
20260509081534 13 314 0.0 4.8 0.00 1.27 0.00 93 1010.5
20260509080041 13 241 0.0 6.4 0.00 1.27 0.00 93 1010.5
20260509074538 13 186 1.6 8.0 0.00 1.27 0.00 92 1010.4
20260509073045 13 159 0.0 6.4 0.00 1.27 0.00 92 1010.6
20260509071530 13 284 0.0 4.8 0.00 1.27 0.00 92 1010.6
20260509070029 13 251 0.0 8.0 0.00 1.27 0.00 92 1010.6
20260509064529 13 234 1.6 8.0 0.00 1.27 0.00 92 1010.6
20260509063031 13 280 3.2 12.9 0.00 1.27 0.00 92 1010.5
20260509061528 13 156 1.6 12.9 0.00 1.27 0.00 92 1010.5
20260509060029 13 160 0.0 6.4 0.00 1.27 0.00 92 1010.5
20260509054527 13 188 1.6 6.4 0.00 1.27 0.00 92 1010.5
20260509053034 13 182 4.8 8.0 0.00 1.27 0.00 92 1010.5
20260509051522 13 175 1.6 9.7 0.00 1.27 0.00 92 1010.5
20260509050020 13 242 4.8 14.5 0.03 1.27 0.00 91 1010.4
20260509044519 13 146 4.8 9.7 0.05 1.27 1.27 91 1010.7